Location: Nashville
(36.1660°N, 86.7840°W)
Time: 06:33:39
(UTC-05:00)

DELFI C3 - Visible Passes

Search period start: 22 May 2022 00:00
Search period end: 01 June 2022 00:00
Orbit: 518 x 535 km, 97.3° (Epoch: 21 May)

Date Brightness Start Highest point End Pass type
(mag) Time Alt. Az. Time Alt. Az. Time Alt. Az.
25 May ? 20:50:04 10° WSW 20:51:24 11° W 20:52:43 10° WNW visible
26 May ? 20:37:11 10° SW 20:39:36 16° W 20:42:01 10° NW visible
27 May ? 20:24:45 10° SSW 20:27:46 23° W 20:30:48 10° NW visible
